Regional Weather Roundup
Issued by NWS Charleston, WV

Home | Current Version | Previous Version | Graphics & Text | Print | Product List | Glossary On
Versions: 1 2 3 4 5 6 7 8 9 10 11 12 13 14 15 16 17 18 19 20 21 22 23 24 25 26 27 28 29 30 31 32 33 34 35 36 37 38 39 40 41 42 43 44 45 46 47 48 49 50
000
ASUS41 KRLX 280210
RWRRLX
West Virginia Regional Weather Roundup
National Weather Service Charleston WV
1000 PM EDT FRI MAR 27 2015

Note: "fair" indicates few or no clouds below 12,000 feet with no
significant weather and/or obstructions to visibility.

WVZ003-280300-
Northern Panhandle of West Virginia

CITY           SKY/WX    TMP DP  RH WIND       PRES   REMARKS
WHEELING       LGT SNOW  24  20  84 N13       29.98R VSB 1
$$

WVZ009-280300-
Northwest West Virginia

CITY           SKY/WX    TMP DP  RH WIND       PRES   REMARKS
PARKERSBURG    CLOUDY    28  14  55 NW9       30.05R
$$

WVZ006-280300-
Western West Virginia

CITY           SKY/WX    TMP DP  RH WIND       PRES   REMARKS
HUNTINGTON     CLOUDY    30  17  58 N10       30.04R
$$

WVZ015-280300-
West Central West Virginia

CITY           SKY/WX    TMP DP  RH WIND       PRES   REMARKS
CHARLESTON     FLURRIES  32  19  58 N13G24    29.99R
$$

WVZ022-031-280300-
North Central West Virginia

CITY           SKY/WX    TMP DP  RH WIND       PRES   REMARKS
CLARKSBURG     LGT SNOW  29  24  82 NW8       29.95R
MORGANTOWN     CLOUDY    29  20  69 N7        29.96R
$$

WVZ025-035-042-045-280300-
Southern West Virginia

CITY           SKY/WX    TMP DP  RH WIND       PRES   REMARKS
BECKLEY        LGT SNOW  29  23  78 N12       29.88R
LOGAN          LGT SNOW  30  27  86 NW6       29.92S
BLUEFIELD      LGT SNOW  31  24  75 VRB7      29.86R
LEWISBURG      CLOUDY    33  22  64 NW9       29.86R
$$

WVZ047-280300-
Northern Mountains of West Virginia

CITY           SKY/WX    TMP DP  RH WIND       PRES   REMARKS
ELKINS         LGT SNOW  28  24  85 N9        29.88R VSB 1
$$

WVZ052-280300-
Eastern Panhandle of West Virginia

CITY           SKY/WX    TMP DP  RH WIND       PRES   REMARKS
MARTINSBURG    CLOUDY    41  22  46 NW13      29.86R
PETERSBURG     CLOUDY    37  24  59 N9        29.89R
$$



USA.gov is the U.S. government's official web portal to all federal, state and local government web resources and services.